Weather in Srednereynovskiy

Russia / Amur Oblast     53°41′09″N   123°50′17″E
temp.,
°C
wind,
m/s
gust,
m/s
humid.,
%
clouds,
%
prec.,
mm/h
press.,
hPa
HPBL,
m
14 may, fri
fri1400:00+1nne11978 0.0 100710
03:000nw11975 0.0 100710
06:00+2wnw11967 0.0 100831
09:00+8wnw226913 0.0 1006676
12:00+13w224356 0.1 10041875
15:00+12n325217 0.6 10031283
18:00+11n446258 0.9 10041085
21:00+4n37886 1.0 1006209
15 may, sat
sat1500:00+3n399465 0.0 1006396
03:00+4nnw4988100 0.1 1006514
06:00+5nw498783 0.3 1005653
09:00+8nw6967100 0.3 10041183
12:00+11nnw695099 0.0 10041675
15:00+13nnw7104567 0.0 10031818
18:00+13nw5845100 0.0 10041840
21:00+6nnw23710 0.0 100639
16 may, sun
sun1600:00+3wnw11810 0.0 100510
03:00+2nne00850 0.0 100410
06:00+4ene11752 0.0 100227
09:00+11ssw354916 0.0 999784
12:00+14wsw573642 0.0 9972011
15:00+16wnw61125100 0.0 9953419
18:00+15nw515280 0.0 9953494
21:00+9nw395552 0.0 998321
17 may, mon
mon1700:00+5nw2107234 0.0 999222
03:00+2w228010 0.0 100015
06:00+3wnw2107123 0.0 1001417
09:00+9nnw69325 0.0 10021610
12:00+12nw4725100 0.0 10022864
15:00+14nw4622100 0.0 10012947
18:00+13wnw3424100 0.0 10012620
21:00+6ene265192 0.0 1002100
18 may, tue
tue1800:00+6e2948100 0.0 1002221
03:00+5ese41050100 0.0 1002487
06:00+5e2461100 0.0 1002260
09:00+3ese3796100 1.3 1002600
12:00+3ne1398100 1.3 1001379
15:00+4wnw2696100 1.4 1002646
18:00+7nw257210 0.1 1001773
21:00+3s22921 0.1 100118